Regional Weather Roundup
Issued by NWS

Home | Current Version | Previous Version | Graphics & Text | Print | Product List | Glossary On
Versions: 1 2 3 4 5 6 7 8 9 10 11 12 13 14 15 16 17 18 19 20 21 22 23 24 25 26 27 28 29 30 31 32 33 34 35 36 37 38 39 40 41 42 43 44 45 46 47 48 49 50
000
ASUS43 KBIS 121002
RWRND

NORTH DAKOTA REGIONAL WEATHER ROUNDUP
NATIONAL WEATHER SERVICE BISMARCK ND
400 AM CST TUE DEC 12 2017

NOTE: "FAIR" INDICATES FEW OR NO CLOUDS BELOW 12,000 FEET WITH NO
SIGNIFICANT WEATHER AND/OR OBSTRUCTIONS TO VISIBILITY.


NDZ001>003-009>011-017-121100-
NORTHWEST NORTH DAKOTA

CITY           SKY/WX    TMP DP  RH WIND       PRES   REMARKS
WILLISTON        N/A    N/A N/A N/A MISG      30.18F
MINOT          CLEAR     31  25  78 SW14      30.12F
MINOT AFB      CLOUDY    28  24  85 W10       30.10F WCI  19
$$

NDZ018>021-031>035-040>046-121100-
SOUTHWEST NORTH DAKOTA

CITY           SKY/WX    TMP DP  RH WIND       PRES   REMARKS
BISMARCK       CLOUDY    19  19 100 CALM      30.21F
DICKINSON      CLOUDY    27  24  89 W15       30.18F WCI  15
GARRISON         N/A     28  25  88 W14       30.15F WCI  17
HETTINGER ARPT CLOUDY    20  17  88 W3        30.24F
$$

NDZ004>008-012>016-024-026-027-054-121100-
NORTHEAST NORTH DAKOTA

CITY           SKY/WX    TMP DP  RH WIND       PRES   REMARKS
GRAND FORKS    CLOUDY    16  13  88 S12       30.17F WCI   3
GRND FRKS AFB  CLOUDY    19  14  83 SW8       30.16F WCI   9
DEVILS LAKE    CLOUDY    26  23  88 SW10      30.12F WCI  16
$$

NDZ022-023-025-028>030-036>039-047>053-121100-
SOUTHEAST NORTH DAKOTA

CITY           SKY/WX    TMP DP  RH WIND       PRES   REMARKS
FARGO          CLOUDY    13   8  81 S8        30.22F WCI   2
JAMESTOWN      CLOUDY    24  21  88 W9        30.17F WCI  14
$$





USA.gov is the U.S. government's official web portal to all federal, state and local government web resources and services.